Location: Burzi?i
(45.0869°N, 16.0577°E)
Time: 11:49:37
(UTC+00:00)

Cosmos 1656 - Pass Details

Date: 29 October 2020
Orbit: 796 x 851 km, 71.1° (Epoch: 27 November)

Event Time Altitude Azimuth Distance (km) Brightness Sun altitude
Rises 16:32:36 0° 192° (SSW) 3,332 7.1 -8.5°
Reaches altitude 10° 16:35:01 10° 189° (S) 2,412 6.3 -8.9°
Maximum altitude 16:40:27 60° 110° (ESE) 951 3.7 -9.9°
Drops below altitude 10° 16:46:00 10° 32° (NNE) 2,464 5.7 -10.8°
Sets 16:48:29 0° 29° (NNE) 3,409 6.5 -11.3°
